カタログに戻る

STARLINK-11197

運用中通信VLEO
NORAD 60186·PAYLOAD·🇺🇸 United States

打ち上げ Jul 3, 2024 から Cape Canaveral Space Force Station

Loading…

次のパス (今後24時間)

TLE

最新Source: CelesTrak SupGP

元期: Sep 14, 2026, 22:33 UTC

1 60186C 24124D   26257.94006944 -.00049672  00000+0 -40921-3 0  2577
2 60186  53.1570 308.0663 0001169  82.8256 198.3215 15.69731410    15

AllMySatでSTARLINK-11197をリアルタイム追跡

Download on the App Store